User: anonymous   Login
Location: Unspecified
(0.0000°N, 0.0000°E)
Time: 17:06:54
(UTC+00:00)
Language:

CSUNSAT 1 - Orbit

View from above orbital plane
View from above orbital plane
View from above satellite
View from above satellite

Ground track
Ground track

The orbit data is extracted from the following two-line orbital elements,

1 42715U 98067LW  18349.46859376  .00043001  00000-0  23671-3 0  9992
2 42715  51.6321 149.0184 0003546 172.4644 187.6411 15.79250896 90078
Epoch (UTC): 15 December 2018 11:14:46
Eccentricity: 0.0003546
inclination: 51.6321°
perigee height: 330 km
apogee height: 335 km
right ascension of ascending node: 149.0184°
argument of perigee: 172.4644°
revolutions per day: 15.79250896
mean anomaly at epoch: 187.6411°
orbit number at epoch: 9007

The dashed part of the orbit path shows where the satellite is in the earth's shadow,  

DLR